URO7AM LEMD-LFPG

Flight info

Callsign URO7AM
Flight time 1h 36m
Altitude 34000
Route RBO N867 DGO DCT ABRIX DCT CNA DCT POI/N0457F300 DCT PEPAX UT182 KEPER
Aircraft A346/H-SDE2E3FGHIJ3J4J5M1RWXY/LB1D1

Departure

Time 2026-05-06 17:54
Airport Adolfo Suárez Madrid–Barajas Airport (LEMD)

Arrival

Time 2026-05-06 19:30
Airport Charles de Gaulle International Airport (LFPG)
Time Latitude Longitude Altitude Speed Heading
2026-05-06 17:04 40.45812 -3.57228 1989 ft 0 kts 224°
2026-05-06 17:38 40.45805 -3.57236 1989 ft 2 kts 224°
2026-05-06 17:39 40.45788 -3.57258 1992 ft 5 kts 224°
2026-05-06 17:39 40.45755 -3.57284 1992 ft 5 kts 189°
2026-05-06 17:39 40.45711 -3.57265 1992 ft 8 kts 147°
2026-05-06 17:39 40.45672 -3.57208 1993 ft 8 kts 106°
2026-05-06 17:40 40.45688 -3.57133 1990 ft 10 kts 65°
2026-05-06 17:40 40.45729 -3.57053 1992 ft 11 kts 50°
2026-05-06 17:40 40.45788 -3.56971 1991 ft 13 kts 46°
2026-05-06 17:40 40.45855 -3.56881 1993 ft 14 kts 44°
2026-05-06 17:41 40.45931 -3.56791 1991 ft 15 kts 34°
2026-05-06 17:41 40.46036 -3.56752 1989 ft 16 kts
2026-05-06 17:41 40.46155 -3.56748 1989 ft 17 kts 14°
2026-05-06 17:41 40.46204 -3.56693 1989 ft 0 kts 65°
2026-05-06 17:42 40.46206 -3.56688 1989 ft 1 kts 65°
2026-05-06 17:42 40.46223 -3.56648 1992 ft 7 kts 52°
2026-05-06 17:42 40.46290 -3.56604 1992 ft 14 kts
2026-05-06 17:42 40.46392 -3.56592 1992 ft 16 kts
2026-05-06 17:43 40.46509 -3.56579 1990 ft 18 kts
2026-05-06 17:43 40.46596 -3.56573 1989 ft 20 kts
2026-05-06 17:43 40.46739 -3.56562 1990 ft 19 kts
2026-05-06 17:43 40.46872 -3.56551 1989 ft 20 kts
2026-05-06 17:44 40.47020 -3.56557 1991 ft 22 kts 346°
2026-05-06 17:44 40.47158 -3.56648 1992 ft 23 kts 325°
2026-05-06 17:44 40.47292 -3.56781 1991 ft 25 kts 322°
2026-05-06 17:44 40.47434 -3.56923 1991 ft 26 kts 322°
2026-05-06 17:45 40.47582 -3.57072 1991 ft 27 kts 322°
2026-05-06 17:45 40.47736 -3.57230 1991 ft 28 kts 322°
2026-05-06 17:45 40.47893 -3.57390 1991 ft 29 kts 322°
2026-05-06 17:45 40.48053 -3.57554 1991 ft 30 kts 322°
2026-05-06 17:46 40.48215 -3.57719 1991 ft 30 kts 322°
2026-05-06 17:46 40.48386 -3.57884 1992 ft 31 kts 326°
2026-05-06 17:46 40.48558 -3.58026 1990 ft 28 kts 335°
2026-05-06 17:46 40.48740 -3.58063 1991 ft 20 kts 359°
2026-05-06 17:47 40.48849 -3.57980 1991 ft 20 kts 79°
2026-05-06 17:47 40.48861 -3.57788 1989 ft 22 kts 89°
2026-05-06 17:47 40.48863 -3.57579 1989 ft 24 kts 90°
2026-05-06 17:47 40.48863 -3.57356 1989 ft 25 kts 90°
2026-05-06 17:48 40.48863 -3.57121 1989 ft 26 kts 90°
2026-05-06 17:48 40.48863 -3.56877 1989 ft 27 kts 90°
2026-05-06 17:48 40.48863 -3.56628 1989 ft 28 kts 90°
2026-05-06 17:48 40.48863 -3.56373 1989 ft 25 kts 89°
2026-05-06 17:49 40.48973 -3.56253 1990 ft 23 kts
2026-05-06 17:49 40.49139 -3.56251 1989 ft 25 kts 359°
2026-05-06 17:49 40.49316 -3.56253 1992 ft 26 kts 359°
2026-05-06 17:49 40.49501 -3.56255 1989 ft 27 kts 360°
2026-05-06 17:50 40.49694 -3.56254 1992 ft 28 kts
2026-05-06 17:50 40.49883 -3.56249 1990 ft 24 kts 17°
2026-05-06 17:50 40.49938 -3.56115 1989 ft 14 kts 80°
2026-05-06 17:50 40.49943 -3.56085 1989 ft 0 kts 78°
2026-05-06 17:51 40.49944 -3.56083 1989 ft 1 kts 78°
2026-05-06 17:52 40.49949 -3.56058 1991 ft 6 kts 71°
2026-05-06 17:52 40.49986 -3.55979 1991 ft 14 kts 45°
2026-05-06 17:52 40.50090 -3.55925 1989 ft 17 kts
2026-05-06 17:52 40.50147 -3.55924 1989 ft 0 kts
2026-05-06 17:53 40.50279 -3.55924 1992 ft 56 kts 360°
2026-05-06 17:53 40.50948 -3.55927 1989 ft 133 kts 360°
2026-05-06 17:53 40.52104 -3.55934 1992 ft 196 kts
2026-05-06 17:53 40.53584 -3.55926 2475 ft 219 kts
2026-05-06 17:54 40.55107 -3.55786 3445 ft 224 kts
2026-05-06 17:54 40.56679 -3.55272 4208 ft 242 kts 20°
2026-05-06 17:54 40.58317 -3.54407 4961 ft 263 kts 26°
2026-05-06 17:54 40.59936 -3.53214 5864 ft 275 kts 36°
2026-05-06 17:55 40.61458 -3.51600 7013 ft 279 kts 41°
2026-05-06 17:55 40.62912 -3.49967 8162 ft 282 kts 38°
2026-05-06 17:55 40.64662 -3.48750 9257 ft 287 kts 20°
2026-05-06 17:55 40.66578 -3.47950 10335 ft 291 kts 16°
2026-05-06 17:56 40.68539 -3.47194 11300 ft 297 kts 16°
2026-05-06 17:56 40.70562 -3.46382 12245 ft 303 kts 17°
2026-05-06 17:56 40.72577 -3.45536 13161 ft 307 kts 18°
2026-05-06 17:56 40.74597 -3.44661 13998 ft 312 kts 18°
2026-05-06 17:57 40.76673 -3.43743 14698 ft 319 kts 18°
2026-05-06 17:57 40.78820 -3.42785 15120 ft 335 kts 18°
2026-05-06 17:57 40.81093 -3.41762 15481 ft 353 kts 18°
2026-05-06 17:57 40.83455 -3.40693 16037 ft 363 kts 18°
2026-05-06 17:58 40.85862 -3.39600 16826 ft 367 kts 18°
2026-05-06 17:58 40.88279 -3.38501 17650 ft 370 kts 17°
2026-05-06 17:58 40.90733 -3.37385 18413 ft 375 kts 17°
2026-05-06 17:58 40.93213 -3.36257 19058 ft 379 kts 17°
2026-05-06 17:59 40.95723 -3.35115 19738 ft 383 kts 17°
2026-05-06 17:59 40.98256 -3.33962 20411 ft 387 kts 17°
2026-05-06 17:59 41.00824 -3.32792 21097 ft 391 kts 16°
2026-05-06 17:59 41.03413 -3.31611 21753 ft 395 kts 16°
2026-05-06 18:00 41.06026 -3.30418 22427 ft 399 kts 16°
2026-05-06 18:00 41.08666 -3.29212 23102 ft 403 kts 16°
2026-05-06 18:00 41.11289 -3.28015 23714 ft 406 kts 16°
2026-05-06 18:00 41.13977 -3.26785 24283 ft 409 kts 16°
2026-05-06 18:01 41.16684 -3.25546 24834 ft 412 kts 16°
2026-05-06 18:01 41.19407 -3.24298 25409 ft 416 kts 16°
2026-05-06 18:01 41.22159 -3.23035 25974 ft 419 kts 16°
2026-05-06 18:01 41.24916 -3.21746 26518 ft 423 kts 17°
2026-05-06 18:02 41.27682 -3.20366 27062 ft 426 kts 18°
2026-05-06 18:02 41.30461 -3.18953 27606 ft 429 kts 18°
2026-05-06 18:02 41.33268 -3.17523 28145 ft 432 kts 18°
2026-05-06 18:02 41.36091 -3.16089 28691 ft 435 kts 18°
2026-05-06 18:03 41.38928 -3.14652 29193 ft 439 kts 18°
2026-05-06 18:03 41.41788 -3.13203 29690 ft 442 kts 18°
2026-05-06 18:03 41.44648 -3.11756 30158 ft 445 kts 18°
2026-05-06 18:03 41.47560 -3.10282 30570 ft 449 kts 18°
2026-05-06 18:04 41.50489 -3.08799 30967 ft 452 kts 18°
2026-05-06 18:04 41.53437 -3.07304 31386 ft 455 kts 18°
2026-05-06 18:04 41.56398 -3.05800 31811 ft 457 kts 18°
2026-05-06 18:04 41.59386 -3.04281 32209 ft 460 kts 17°
2026-05-06 18:05 41.62391 -3.02753 32559 ft 463 kts 17°
2026-05-06 18:05 41.65367 -3.01240 32907 ft 466 kts 17°
2026-05-06 18:05 41.68413 -2.99689 33262 ft 469 kts 17°
2026-05-06 18:05 41.71466 -2.98133 33619 ft 472 kts 17°
2026-05-06 18:06 41.74544 -2.96562 33934 ft 476 kts 17°
2026-05-06 18:06 41.77672 -2.94966 33938 ft 486 kts 17°
2026-05-06 18:06 41.84111 -2.91675 33952 ft 503 kts 18°
2026-05-06 18:07 41.90596 -2.88343 33944 ft 485 kts 18°
2026-05-06 18:07 41.96796 -2.85147 33979 ft 474 kts 17°
2026-05-06 18:08 42.02921 -2.81994 33971 ft 473 kts 17°
2026-05-06 18:08 42.09109 -2.78804 33984 ft 473 kts 17°
2026-05-06 18:09 42.15215 -2.75647 33987 ft 473 kts 17°
2026-05-06 18:09 42.21370 -2.72457 33992 ft 472 kts 17°
2026-05-06 18:10 42.27492 -2.69277 34002 ft 472 kts 17°
2026-05-06 18:10 42.33624 -2.66086 34004 ft 473 kts 17°
2026-05-06 18:11 42.39756 -2.62889 34018 ft 472 kts 18°
2026-05-06 18:11 42.45857 -2.59701 34009 ft 472 kts 18°
2026-05-06 18:12 42.51987 -2.56490 33997 ft 472 kts 18°
2026-05-06 18:12 42.58111 -2.53275 34010 ft 472 kts 18°
2026-05-06 18:13 42.64232 -2.50058 34018 ft 471 kts 18°
2026-05-06 18:13 42.70332 -2.46842 34013 ft 471 kts 18°
2026-05-06 18:14 42.76450 -2.43610 34036 ft 471 kts 18°
2026-05-06 18:14 42.82563 -2.40375 34035 ft 471 kts 18°
2026-05-06 18:15 42.88672 -2.37135 34020 ft 471 kts 18°
2026-05-06 18:15 42.94789 -2.33883 34034 ft 471 kts 18°
2026-05-06 18:16 43.00893 -2.30632 34036 ft 471 kts 18°
2026-05-06 18:16 43.07010 -2.27365 34032 ft 471 kts 18°
2026-05-06 18:17 43.13082 -2.24117 34034 ft 471 kts 18°
2026-05-06 18:17 43.19200 -2.20837 34031 ft 471 kts 18°
2026-05-06 18:18 43.25301 -2.17562 34039 ft 470 kts 18°
2026-05-06 18:18 43.31395 -2.14280 34036 ft 470 kts 18°
2026-05-06 18:19 43.37481 -2.10995 34036 ft 470 kts 18°
2026-05-06 18:19 43.43574 -2.07702 34045 ft 468 kts 18°
2026-05-06 18:20 43.49621 -2.04424 34028 ft 466 kts 18°
2026-05-06 18:20 43.55622 -2.01163 34025 ft 466 kts 18°
2026-05-06 18:21 43.61658 -1.97863 34037 ft 467 kts 19°
2026-05-06 18:21 43.67514 -1.93985 34024 ft 467 kts 26°
2026-05-06 18:22 43.73176 -1.89546 34027 ft 468 kts 27°
2026-05-06 18:22 43.78827 -1.85049 34018 ft 468 kts 27°
2026-05-06 18:23 43.84468 -1.80565 34025 ft 466 kts 27°
2026-05-06 18:23 43.90059 -1.76118 34015 ft 466 kts 27°
2026-05-06 18:24 43.95679 -1.71642 34014 ft 466 kts 27°
2026-05-06 18:24 44.01308 -1.67149 34016 ft 466 kts 27°
2026-05-06 18:25 44.06921 -1.62661 34016 ft 465 kts 27°
2026-05-06 18:25 44.12522 -1.58170 34014 ft 464 kts 27°
2026-05-06 18:26 44.18126 -1.53668 34011 ft 464 kts 27°
2026-05-06 18:26 44.23719 -1.49162 34022 ft 464 kts 27°
2026-05-06 18:27 44.29275 -1.44679 34015 ft 463 kts 27°
2026-05-06 18:27 44.34854 -1.40168 34009 ft 463 kts 27°
2026-05-06 18:28 44.40436 -1.35644 34007 ft 463 kts 27°
2026-05-06 18:28 44.45065 -1.31886 34011 ft 462 kts 27°
2026-05-06 18:29 44.50625 -1.27361 34007 ft 461 kts 27°
2026-05-06 18:29 44.56174 -1.22834 34001 ft 461 kts 27°
2026-05-06 18:30 44.61728 -1.18294 34015 ft 461 kts 27°
2026-05-06 18:30 44.67266 -1.13756 34011 ft 460 kts 27°
2026-05-06 18:31 44.72798 -1.09209 34004 ft 460 kts 27°
2026-05-06 18:31 44.78326 -1.04662 33996 ft 460 kts 27°
2026-05-06 18:32 44.83804 -1.00144 33995 ft 460 kts 27°
2026-05-06 18:32 44.89327 -0.95579 33990 ft 460 kts 27°
2026-05-06 18:33 44.94812 -0.91035 33981 ft 460 kts 27°
2026-05-06 18:33 45.00330 -0.86453 33993 ft 460 kts 27°
2026-05-06 18:34 45.05838 -0.81871 33987 ft 459 kts 28°
2026-05-06 18:34 45.11346 -0.77275 33984 ft 459 kts 28°
2026-05-06 18:35 45.16814 -0.72700 33980 ft 459 kts 27°
2026-05-06 18:35 45.22313 -0.68097 33986 ft 458 kts 28°
2026-05-06 18:36 45.27800 -0.63489 33979 ft 457 kts 28°
2026-05-06 18:36 45.33274 -0.58880 33970 ft 457 kts 28°
2026-05-06 18:37 45.38753 -0.54258 33976 ft 457 kts 28°
2026-05-06 18:37 45.44217 -0.49639 33974 ft 456 kts 28°
2026-05-06 18:38 45.49679 -0.45009 33942 ft 454 kts 28°
2026-05-06 18:38 45.52379 -0.42716 33623 ft 449 kts 28°
2026-05-06 18:38 45.55066 -0.40432 33068 ft 448 kts 28°
2026-05-06 18:39 45.57742 -0.38155 32589 ft 445 kts 28°
2026-05-06 18:39 45.60354 -0.35932 32183 ft 441 kts 28°
2026-05-06 18:39 45.62976 -0.33695 31760 ft 437 kts 28°
2026-05-06 18:40 45.68281 -0.29635 30909 ft 428 kts 23°
2026-05-06 18:40 45.70975 -0.27852 30477 ft 424 kts 22°
2026-05-06 18:40 45.73652 -0.26111 30076 ft 421 kts 22°
2026-05-06 18:40 45.76307 -0.24388 29955 ft 418 kts 22°
2026-05-06 18:41 45.78967 -0.22660 29955 ft 421 kts 22°
2026-05-06 18:41 45.84310 -0.19176 29961 ft 422 kts 22°
2026-05-06 18:42 45.89654 -0.15677 29955 ft 422 kts 22°
2026-05-06 18:42 45.94963 -0.12192 29960 ft 422 kts 22°
2026-05-06 18:43 46.00313 -0.08674 29963 ft 423 kts 22°
2026-05-06 18:43 46.05679 -0.05136 29960 ft 424 kts 22°
2026-05-06 18:44 46.11037 -0.01595 29961 ft 424 kts 22°
2026-05-06 18:44 46.16374 0.01941 29965 ft 419 kts 22°
2026-05-06 18:45 46.21682 0.05461 29963 ft 420 kts 22°
2026-05-06 18:45 46.27000 0.08998 29961 ft 420 kts 22°
2026-05-06 18:46 46.32278 0.12515 29960 ft 420 kts 22°
2026-05-06 18:46 46.37597 0.16067 29968 ft 421 kts 22°
2026-05-06 18:47 46.42907 0.19619 29972 ft 421 kts 22°
2026-05-06 18:47 46.48227 0.23189 29975 ft 421 kts 22°
2026-05-06 18:48 46.53560 0.26761 29969 ft 421 kts 22°
2026-05-06 18:48 46.59026 0.29765 29978 ft 420 kts 15°
2026-05-06 18:49 46.64696 0.31883 29978 ft 420 kts 11°
2026-05-06 18:49 46.70412 0.33630 29974 ft 420 kts 10°
2026-05-06 18:50 46.76128 0.35370 29971 ft 420 kts 10°
2026-05-06 18:50 46.81848 0.37124 29971 ft 420 kts 10°
2026-05-06 18:51 46.87562 0.38885 29967 ft 420 kts 10°
2026-05-06 18:51 46.93246 0.40640 29965 ft 420 kts 10°
2026-05-06 18:52 46.98942 0.42401 29976 ft 417 kts 11°
2026-05-06 18:52 47.04650 0.44037 29967 ft 417 kts
2026-05-06 18:53 47.10377 0.44419 29396 ft 408 kts 356°
2026-05-06 18:53 47.13178 0.44038 29186 ft 399 kts 351°
2026-05-06 18:53 47.15900 0.43423 28766 ft 395 kts 350°
2026-05-06 18:53 47.18583 0.42765 28009 ft 400 kts 349°
2026-05-06 18:54 47.21379 0.42070 27464 ft 400 kts 349°
2026-05-06 18:54 47.24079 0.41401 27022 ft 397 kts 349°
2026-05-06 18:54 47.26803 0.40731 26532 ft 396 kts 349°
2026-05-06 18:54 47.29513 0.40063 26056 ft 394 kts 349°
2026-05-06 18:55 47.32211 0.39399 25620 ft 392 kts 349°
2026-05-06 18:55 47.34900 0.38737 25190 ft 390 kts 349°
2026-05-06 18:55 47.37563 0.38081 24773 ft 387 kts 349°
2026-05-06 18:55 47.40223 0.37426 24358 ft 385 kts 349°
2026-05-06 18:56 47.42866 0.36775 23919 ft 384 kts 349°
2026-05-06 18:56 47.45496 0.36126 23483 ft 382 kts 349°
2026-05-06 18:56 47.48113 0.35479 22971 ft 380 kts 349°
2026-05-06 18:56 47.50678 0.34845 22520 ft 377 kts 349°
2026-05-06 18:57 47.53258 0.34206 22094 ft 374 kts 349°
2026-05-06 18:57 47.55819 0.33572 21650 ft 371 kts 349°
2026-05-06 18:57 47.58365 0.32941 21220 ft 369 kts 349°
2026-05-06 18:57 47.60889 0.32314 20787 ft 366 kts 349°
2026-05-06 18:58 47.63406 0.31689 20336 ft 365 kts 349°
2026-05-06 18:58 47.65893 0.31071 19920 ft 363 kts 349°
2026-05-06 18:58 47.68371 0.30454 19384 ft 360 kts 349°
2026-05-06 18:58 47.70803 0.29849 19087 ft 347 kts 349°
2026-05-06 18:59 47.73211 0.29249 19011 ft 355 kts 349°
2026-05-06 18:59 47.75626 0.28646 19242 ft 347 kts 349°
2026-05-06 18:59 47.77963 0.28305 19069 ft 336 kts 360°
2026-05-06 18:59 47.80262 0.28664 18621 ft 331 kts 11°
2026-05-06 19:00 47.82458 0.29705 18014 ft 334 kts 22°
2026-05-06 19:00 47.84569 0.31481 18037 ft 360 kts 32°
2026-05-06 19:00 47.86639 0.33624 18673 ft 362 kts 33°
2026-05-06 19:00 47.87991 0.35058 19020 ft 357 kts 33°
2026-05-06 19:01 47.90653 0.37881 19051 ft 344 kts 33°
2026-05-06 19:01 47.92580 0.39914 18878 ft 334 kts 33°
2026-05-06 19:01 47.94451 0.41881 18649 ft 326 kts 33°
2026-05-06 19:01 47.96294 0.43815 18332 ft 322 kts 33°
2026-05-06 19:02 47.98117 0.45728 17973 ft 318 kts 33°
2026-05-06 19:02 47.99898 0.47597 17567 ft 316 kts 33°
2026-05-06 19:02 48.01696 0.49485 17152 ft 314 kts 33°
2026-05-06 19:02 48.03479 0.51360 16728 ft 313 kts 33°
2026-05-06 19:03 48.05254 0.53229 16313 ft 311 kts 33°
2026-05-06 19:03 48.07018 0.55087 15929 ft 309 kts 33°
2026-05-06 19:03 48.08778 0.56944 15535 ft 308 kts 33°
2026-05-06 19:03 48.10523 0.58785 15140 ft 306 kts 33°
2026-05-06 19:04 48.12258 0.60618 14769 ft 304 kts 33°
2026-05-06 19:04 48.13985 0.62445 14397 ft 303 kts 33°
2026-05-06 19:04 48.15701 0.64260 14034 ft 301 kts 33°
2026-05-06 19:04 48.17411 0.66072 13665 ft 300 kts 33°
2026-05-06 19:05 48.19088 0.67849 13267 ft 298 kts 33°
2026-05-06 19:05 48.20776 0.69640 12850 ft 296 kts 33°
2026-05-06 19:05 48.22457 0.71424 12466 ft 295 kts 33°
2026-05-06 19:05 48.24122 0.73194 12088 ft 292 kts 33°
2026-05-06 19:06 48.25778 0.74955 11712 ft 290 kts 33°
2026-05-06 19:06 48.27424 0.76708 11264 ft 291 kts 33°
2026-05-06 19:06 48.29083 0.78475 10806 ft 291 kts 33°
2026-05-06 19:06 48.30741 0.80242 10376 ft 292 kts 33°
2026-05-06 19:07 48.32400 0.82017 9940 ft 292 kts 34°
2026-05-06 19:07 48.33445 0.83310 9619 ft 294 kts 40°
2026-05-06 19:07 48.35240 0.86400 9288 ft 288 kts 53°
2026-05-06 19:07 48.36247 0.88906 9339 ft 273 kts 60°
2026-05-06 19:08 48.37115 0.91397 9390 ft 266 kts 61°
2026-05-06 19:08 48.37963 0.93889 9201 ft 272 kts 61°
2026-05-06 19:08 48.38849 0.96480 8722 ft 281 kts 60°
2026-05-06 19:08 48.39750 0.99105 8265 ft 283 kts 60°
2026-05-06 19:09 48.40666 1.01762 7790 ft 285 kts 60°
2026-05-06 19:09 48.41582 1.04416 7325 ft 287 kts 59°
2026-05-06 19:09 48.42504 1.07096 6874 ft 288 kts 59°
2026-05-06 19:09 48.43418 1.09750 6449 ft 289 kts 59°
2026-05-06 19:10 48.44347 1.12450 5989 ft 290 kts 59°
2026-05-06 19:10 48.45282 1.15158 5513 ft 291 kts 59°
2026-05-06 19:10 48.46214 1.17867 5225 ft 285 kts 59°
2026-05-06 19:10 48.47112 1.20489 5038 ft 276 kts 59°
2026-05-06 19:11 48.47980 1.23027 4869 ft 268 kts 59°
2026-05-06 19:11 48.48821 1.25487 4702 ft 260 kts 59°
2026-05-06 19:11 48.49636 1.27870 4533 ft 252 kts 59°
2026-05-06 19:11 48.50426 1.30182 4392 ft 242 kts 59°
2026-05-06 19:12 48.51183 1.32400 4210 ft 233 kts 59°
2026-05-06 19:12 48.51923 1.34556 4028 ft 230 kts 59°
2026-05-06 19:12 48.52648 1.36661 4027 ft 228 kts 59°
2026-05-06 19:12 48.53142 1.38094 4024 ft 226 kts 59°
2026-05-06 19:13 48.54100 1.40884 4011 ft 225 kts 59°
2026-05-06 19:13 48.54815 1.42972 4032 ft 224 kts 59°
2026-05-06 19:13 48.55531 1.45060 4012 ft 223 kts 59°
2026-05-06 19:13 48.56242 1.47137 4028 ft 222 kts 59°
2026-05-06 19:14 48.56990 1.49183 4021 ft 221 kts 55°
2026-05-06 19:14 48.57862 1.51078 4024 ft 219 kts 49°
2026-05-06 19:14 48.58862 1.52805 4022 ft 218 kts 43°
2026-05-06 19:14 48.59927 1.54456 4033 ft 220 kts 42°
2026-05-06 19:15 48.60632 1.55537 4023 ft 216 kts 41°
2026-05-06 19:15 48.61676 1.57135 4011 ft 210 kts 42°
2026-05-06 19:15 48.62692 1.58691 4013 ft 208 kts 41°
2026-05-06 19:15 48.63722 1.60266 4031 ft 212 kts 41°
2026-05-06 19:16 48.64765 1.61864 4032 ft 215 kts 42°
2026-05-06 19:16 48.65827 1.63490 4024 ft 218 kts 43°
2026-05-06 19:16 48.66896 1.65140 4027 ft 221 kts 43°
2026-05-06 19:16 48.67974 1.66803 4023 ft 223 kts 43°
2026-05-06 19:17 48.69063 1.68486 4028 ft 223 kts 43°
2026-05-06 19:17 48.70136 1.70143 4026 ft 223 kts 43°
2026-05-06 19:17 48.71237 1.71846 4017 ft 221 kts 43°
2026-05-06 19:17 48.72288 1.73476 4017 ft 217 kts 43°
2026-05-06 19:18 48.73333 1.75089 4023 ft 213 kts 44°
2026-05-06 19:18 48.74362 1.76677 4020 ft 210 kts 44°
2026-05-06 19:18 48.75375 1.78251 4022 ft 207 kts 44°
2026-05-06 19:18 48.76380 1.79812 4024 ft 206 kts 43°
2026-05-06 19:19 48.77381 1.81360 4019 ft 204 kts 43°
2026-05-06 19:19 48.78373 1.82893 4017 ft 202 kts 43°
2026-05-06 19:19 48.79353 1.84418 4018 ft 201 kts 43°
2026-05-06 19:19 48.80327 1.85933 4022 ft 201 kts 44°
2026-05-06 19:20 48.81309 1.87456 4018 ft 202 kts 44°
2026-05-06 19:20 48.82290 1.88984 4023 ft 202 kts 44°
2026-05-06 19:20 48.83272 1.90516 4028 ft 202 kts 43°
2026-05-06 19:20 48.84260 1.92052 4024 ft 203 kts 43°
2026-05-06 19:21 48.85234 1.93567 4026 ft 203 kts 43°
2026-05-06 19:21 48.86227 1.95119 4030 ft 204 kts 43°
2026-05-06 19:21 48.87233 1.96692 4039 ft 209 kts 44°
2026-05-06 19:21 48.88255 1.98285 4029 ft 212 kts 44°
2026-05-06 19:22 48.89286 1.99896 4026 ft 212 kts 44°
2026-05-06 19:22 48.90319 2.01514 4029 ft 212 kts 43°
2026-05-06 19:22 48.91349 2.03117 4022 ft 210 kts 44°
2026-05-06 19:22 48.92329 2.04654 4005 ft 195 kts 44°
2026-05-06 19:23 48.93244 2.06093 3999 ft 184 kts 43°
2026-05-06 19:23 48.94134 2.07491 4009 ft 183 kts 44°
2026-05-06 19:23 48.95026 2.08884 4020 ft 184 kts 44°
2026-05-06 19:23 48.95919 2.10285 4027 ft 185 kts 43°
2026-05-06 19:24 48.96814 2.11695 4031 ft 184 kts 43°
2026-05-06 19:24 48.97706 2.13091 4023 ft 184 kts 43°
2026-05-06 19:24 48.98587 2.14472 4021 ft 185 kts 44°
2026-05-06 19:24 48.99494 2.15903 4035 ft 185 kts 44°
2026-05-06 19:25 49.00243 2.17461 4023 ft 187 kts 59°
2026-05-06 19:25 49.00655 2.19371 4021 ft 189 kts 77°
2026-05-06 19:25 49.00833 2.21340 4035 ft 190 kts 81°
2026-05-06 19:25 49.00963 2.23364 4025 ft 191 kts 82°
2026-05-06 19:26 49.01073 2.25389 3943 ft 192 kts 82°
2026-05-06 19:26 49.01176 2.27403 3678 ft 190 kts 83°
2026-05-06 19:26 49.01273 2.29396 3428 ft 185 kts 82°
2026-05-06 19:26 49.01367 2.31311 3186 ft 177 kts 82°
2026-05-06 19:27 49.01458 2.33146 2934 ft 170 kts 82°
2026-05-06 19:27 49.01548 2.34904 2703 ft 162 kts 81°
2026-05-06 19:27 49.01637 2.36627 2493 ft 163 kts 81°
2026-05-06 19:27 49.01728 2.38351 2284 ft 163 kts 82°
2026-05-06 19:28 49.01817 2.40075 2062 ft 163 kts 81°
2026-05-06 19:28 49.01906 2.41785 1846 ft 163 kts 82°
2026-05-06 19:28 49.01997 2.43507 1624 ft 162 kts 82°
2026-05-06 19:28 49.02085 2.45223 1395 ft 162 kts 81°
2026-05-06 19:29 49.02177 2.46943 1169 ft 161 kts 82°
2026-05-06 19:29 49.02274 2.48625 936 ft 155 kts 83°
2026-05-06 19:29 49.02347 2.50251 652 ft 152 kts 82°
2026-05-06 19:29 49.02447 2.51840 426 ft 150 kts 84°
2026-05-06 19:30 49.02522 2.53343 370 ft 119 kts 86°
2026-05-06 19:30 49.02560 2.54090 363 ft 24 kts 85°
2026-05-06 19:30 49.02568 2.54325 367 ft 23 kts 91°
2026-05-06 19:30 49.02544 2.54577 366 ft 24 kts 104°
2026-05-06 19:31 49.02499 2.54831 367 ft 25 kts 105°
2026-05-06 19:31 49.02454 2.55099 366 ft 26 kts 97°
2026-05-06 19:31 49.02387 2.55608 368 ft 25 kts 167°
2026-05-06 19:32 49.02206 2.55643 368 ft 27 kts 174°
2026-05-06 19:32 49.02068 2.55524 368 ft 25 kts 261°
2026-05-06 19:32 49.02048 2.55253 363 ft 26 kts 265°
2026-05-06 19:32 49.02034 2.54975 367 ft 27 kts 265°
2026-05-06 19:33 49.02018 2.54683 369 ft 28 kts 265°
2026-05-06 19:33 49.02002 2.54382 368 ft 29 kts 265°
2026-05-06 19:33 49.01929 2.54118 370 ft 28 kts 234°
2026-05-06 19:33 49.01884 2.53840 368 ft 28 kts 265°
2026-05-06 19:34 49.01819 2.53602 369 ft 24 kts 199°
2026-05-06 19:34 49.01768 2.53455 364 ft 17 kts 267°
2026-05-06 19:34 49.01762 2.53263 363 ft 20 kts 267°
2026-05-06 19:34 49.01751 2.53042 366 ft 21 kts 263°
2026-05-06 19:35 49.01679 2.52847 371 ft 22 kts 233°
2026-05-06 19:35 49.01593 2.52651 371 ft 23 kts 226°
2026-05-06 19:35 49.01536 2.52428 365 ft 24 kts 262°
2026-05-06 19:35 49.01498 2.52196 371 ft 17 kts 213°
2026-05-06 19:36 49.01449 2.52188 369 ft 0 kts 172°